This is the latest recevied weather packets stored in our database for station/object 4S6DRJ-13. If no packets are shown the sender has not sent any weather packets the latest 10 day(s).
| Time | Temp. | Humidity | Pressure | Rain* | Wind** | Luminosity | Snow |
|---|---|---|---|---|---|---|---|
| 1788236977 | 30° C | 77% | 1009.5 hPa | 0 mm | 1.34 m/s, 209° | 495 W/m² | - |
| 1788236916 | 30° C | 76% | 1009.8 hPa | 0 mm | 2.24 m/s, 200° | 212 W/m² | - |
| 1788236855 | 30° C | 76% | 1009.7 hPa | 0 mm | 2.24 m/s, 225° | 203 W/m² | - |
| 1788236794 | 30° C | 76% | 1009.6 hPa | 0 mm | 0.45 m/s, 255° | 181 W/m² | - |
| 1788236733 | 30.56° C | 75% | 1009.5 hPa | 0 mm | 1.79 m/s, 298° | 165 W/m² | - |
| 1788236672 | 30.56° C | 74% | 1009.6 hPa | 0 mm | 3.13 m/s, 259° | 171 W/m² | - |
| 1788236610 | 30.56° C | 74% | 1009.6 hPa | 0 mm | 2.24 m/s, 198° | 233 W/m² | - |
| 1788236550 | 30.56° C | 74% | 1009.7 hPa | 0 mm | 1.79 m/s, 263° | 333 W/m² | - |
| 1788236488 | 30° C | 74% | 1009.6 hPa | 0 mm | 1.79 m/s, 312° | 1115 W/m² | - |
| 1788236428 | 30° C | 74% | 1009.5 hPa | 0 mm | 1.79 m/s, 189° | 1113 W/m² | - |
| 1788236367 | 30° C | 74% | 1009.7 hPa | 0 mm | 0.89 m/s, 304° | 390 W/m² | - |
| 1788236307 | 30° C | 75% | 1009.7 hPa | 0 mm | 2.68 m/s, 171° | 894 W/m² | - |
| 1788236245 | 30° C | 76% | 1009.6 hPa | 0 mm | 0.89 m/s, 221° | 1112 W/m² | - |
| 1788236184 | 30° C | 75% | 1009.7 hPa | 0 mm | 1.34 m/s, 337° | 364 W/m² | - |
| 1788236123 | 30° C | 75% | 1009.7 hPa | 0 mm | 0 m/s | 459 W/m² | - |
| 1788236062 | 30° C | 75% | 1009.5 hPa | 0 mm | 1.79 m/s, 183° | 215 W/m² | - |
| 1788236001 | 30° C | 75% | 1009.6 hPa | 0 mm | 0.89 m/s, 305° | 166 W/m² | - |
| 1788235940 | 30.56° C | 75% | 1009.6 hPa | 0 mm | 0.45 m/s, 151° | 219 W/m² | - |
| 1788235879 | 30.56° C | 73% | 1009.7 hPa | 0 mm | 2.24 m/s, 174° | 336 W/m² | - |
| 1788235819 | 30.56° C | 73% | 1009.7 hPa | 0 mm | 1.34 m/s, 230° | 1113 W/m² | - |
| 1788235759 | 30.56° C | 73% | 1009.7 hPa | 0 mm | 2.68 m/s, 229° | 511 W/m² | - |
| 1788235696 | 30.56° C | 74% | 1009.6 hPa | 0 mm | 0.89 m/s, 196° | 295 W/m² | - |
| 1788235635 | 30.56° C | 74% | 1009.6 hPa | 0 mm | 1.34 m/s, 269° | 802 W/m² | - |
| 1788235574 | 30.56° C | 74% | 1009.7 hPa | 0 mm | 2.68 m/s, 328° | 549 W/m² | - |
| 1788235513 | 30.56° C | 75% | 1009.8 hPa | 0 mm | 0.89 m/s, 281° | 509 W/m² | - |
* Rain latest hour (hover to see other rain measurements)
** Current wind speed in m/s (hover to see current wind gust speed)